Back to catalog

STARLINK-3559

AliveCommunicationsVLEO
NORAD 51860·PAYLOAD·🇺🇸 United States

Launched Mar 3, 2022 from Cape Canaveral Space Force Station

Loading…

Next Passes (next 24 hours)

TLE

FreshSource: CelesTrak SupGP

Epoch: Sep 14, 2026, 14:30 UTC

1 51860C 22022J   26257.60465278 -.00045766  00000+0 -13526-2 0  2573
2 51860  53.1588 230.9756 0001279  88.1949 221.1211 15.34403550    13

Track STARLINK-3559 in real time with AllMySat

Download on the App Store